Погода в Сендае

Япония     38°12′29″N   140°53′59″E
темп.,
°C
ветер,
м/с
пор.,
м/с
влажн.,
%
обл.,
%
осадки,
мм/ч
давл.,
гПа
погр.,
м
11 апреля, вс
вс1100:00+7с23463 0.0 1034210
03:00+6с33514 0.0 1034169
06:00+5ссз33540 0.0 1036197
09:00+9юв01450 0.0 1036570
12:00+10юв42450 0.0 1035803
15:00+11юв44520 0.0 1034718
18:00+11ююв55580 0.0 1034742
21:00+11ююв46630 0.0 1035761
12 апреля, пн
пн1200:00+10ю36665 0.0 1035428
03:00+9зюз23693 0.0 1035151
06:00+8зсз11695 0.0 1035114
09:00+11ююв36575 0.0 1034659
12:00+13ююв78584 0.0 1032871
15:00+13ююв911600 0.0 1030661
18:00+12ююв913655 0.0 1030624
21:00+12ю8126491 0.0 1030741
13 апреля, вт
вт1300:00+11ю61265100 0.0 1029826
03:00+11ю51266100 0.0 1026796
06:00+12ю71365100 0.0 1024987
09:00+13ю91568100 0.0 10211187
12:00+15ююв121668100 0.0 10171149
15:00+15ююв101470100 0.0 10141025
18:00+15ю91470100 0.0 1013998
21:00+15ю71271100 0.1 1012715
14 апреля, ср
ср1400:00+15ю51177100 0.0 1010619
03:00+14ююз3680100 0.1 1009159
06:00+13з1178100 0.0 100925
09:00+15ссв3471100 0.0 1009364
12:00+14с6764100 0.1 1008542
15:00+11ссз81171100 0.6 1008710
18:00+9ссз71168100 6.2 1012947
21:00+7ссз7115872 6.3 10151194
15 апреля, чт
чт1500:00+6ссз715521 0.0 10161671
03:00+5ссз713512 0.0 10181635
06:00+5сз510450 0.0 10211291
09:00+8ссз68350 0.0 10221507
12:00+12с46290 0.0 10201612
15:00+13в34310 0.0 10201389
18:00+10юв65460 0.0 1023776
21:00+10ююв56527 0.0 10251092